User: anonymous   Login
Location: Lac de la Montange Noire
(46.1952°N, 74.2701°W)
Time: 12:14:35
(UTC-04:00)
Language:

Iridium 42 - Orbit

View from above orbital plane
View from above orbital plane
View from above satellite
View from above satellite

Ground track
Ground track

The orbit data is extracted from the following two-line orbital elements,

1 25077U 97077A   17080.92766610 +.00000146 +00000-0 +44621-4 0  9996
2 25077 086.3950 058.3894 0002073 091.6305 268.5128 14.34532872009670
Epoch (UTC): 21 March 2017 22:15:50
Eccentricity: 0.0002073
inclination: 86.3950°
perigee height: 775 km
apogee height: 778 km
right ascension of ascending node: 58.3894°
argument of perigee: 91.6305°
revolutions per day: 14.34532872
mean anomaly at epoch: 268.5128°
orbit number at epoch: 967

The dashed part of the orbit path shows where the satellite is in the earth's shadow,  

DLR